STARLINK-4056, 53242

Orbit data source: Space-Track

STARLINK-4056, 53242 is a payload satellite owned by SpaceX/Seattle (US) in LEO that was launched on Sun, 24 Jul 2022 UTC via an FALCON 9 launch vehicle from the Air Force Eastern Test Range (AFETR). Payload-class satellites include a variety of spacecraft equipped with specific instruments for various scientific and technological missions. These include communications satellites like Starlink; space stations such as the ISS; scientific satellites like the Hubble; Earth observation satellites from companies like Planet Labs, Umbra, and HawkEye 360; GPS; miniature CubeSats for education and research; and military/defense satellites.

Loading next visibility...
Identifier
53242, 2022-086A
Orbit
LEO
Country
Flag of USUS
Related business
Manufacturer
SpaceX/Seattle
Mission
Operational Commercial Communications
Bus & Motor
STARLINK, Unknown motor
Mass
297 kg wet, ~275 kg dry
Launch date (UTC)
2022-07-24 (4 years ago)
Launch vehicle
FALCON 9
Launch site
Air Force Eastern Test Range (AFETR)
Object type
Payload
Rocket body
Debris
Shape & HBR
Box + 1 Pan, 10.1 m
Radar Cross Section
13.562 m², Large (>1 m²)

Expand to show TLE details & history
Last TLE update: 2 days ago

TLE from 2 days ago
0 STARLINK-4056
1 53242U 22086A   26171.17705564 -.00000247  00000-0  25848-5 0  9992
2 53242  53.1612  98.9118 0001432  89.4746 270.6409 15.08823996216783
Epoch: 2026-06-20T04:14Z
TLE epoch observation values (Epoch: 2026-06-20T04:14:57.607Z)
Latitude
-0.00006°
Longitude
126.7763°
Altitude
540.673 km
Speed
7.593 km/s
True Right ascension
06h 35m 38s
True Declination
0° 00' 00"
Sunlit
Object was in daylight at epoch
Visualization orbit readout
Latitude
Unknown
Longitude
Unknown
Altitude
Unknown
Speed
Unknown
Apparent Right ascension
Unknown
Apparent Declination
Unknown
Sunlit
N/A
Visualization observer readout
Local Sidereal Time
00:31:10
Azimuth
Unknown
Elevation
Unknown
Doppler factor
Unknown
Orbital elements
Apogee altitude
541.037 km
Perigee altitude
539.056 km
Semi-major axis
6,918.183 km
Eccentricity
0.00014
Inclination
53.1612°
RAAN
98.9118°
Arg. of periapsis
89.4746°
True anomaly
270.62449°
Mean anomaly
270.6409°
Eccentric anomaly
270.6327°
Mean motion
3.77186 °/min
Orbital period
95.44 mins
BSTAR
0.0000025848
Loading maneuver chart data...
Computing Atmospheric mass density...
Loading historical data...
Loading historical data...
Loading historical data...
Loading historical data...
Loading historical data...
Loading historical data...
Loading historical data...

Documentation

Showing up to 5 results
|